Time,TemperatureF,DewpointF,PressureIn,WindDirection,WindDirectionDegrees,WindSpeedMPH,WindSpeedGustMPH,Humidity,HourlyPrecipIn,Conditions,Clouds,dailyrainin,SoftwareType,DateUTC
2013-01-14 00:03:00,40.6,18.8,30.20,ENE,60,7.0,7.0,41,0.00,,---,0.00,VWS V14.01,2013-01-14 08:03:00,
2013-01-14 00:08:00,41.2,16.9,30.20,ENE,58,1.0,8.0,37,0.00,,---,0.00,VWS V14.01,2013-01-14 08:08:00,
2013-01-14 00:13:00,41.8,16.2,30.19,NNW,341,5.0,12.0,35,0.00,,---,0.00,VWS V14.01,2013-01-14 08:13:00,
2013-01-14 00:18:00,42.2,15.2,30.20,NNE,15,4.0,12.0,33,0.00,,---,0.00,VWS V14.01,2013-01-14 08:18:00,
2013-01-14 00:23:00,42.3,14.6,30.20,NE,41,3.0,12.0,32,0.00,,---,0.00,VWS V14.01,2013-01-14 08:23:00,
2013-01-14 00:28:00,42.3,13.8,30.20,NNE,27,0.0,12.0,31,0.00,,---,0.00,VWS V14.01,2013-01-14 08:28:00,
2013-01-14 00:33:00,42.5,13.3,30.20,East,101,2.0,15.0,30,0.00,,---,0.00,VWS V14.01,2013-01-14 08:33:00,
2013-01-14 00:38:00,42.5,13.3,30.20,NE,55,7.0,15.0,30,0.00,,---,0.00,VWS V14.01,2013-01-14 08:38:00,
2013-01-14 00:43:00,42.6,12.6,30.21,North,355,11.0,15.0,29,0.00,,---,0.00,VWS V14.01,2013-01-14 08:43:00,
2013-01-14 00:47:00,42.7,11.9,30.21,North,11,5.0,15.0,28,0.00,,---,0.00,VWS V14.01,2013-01-14 08:47:00,
2013-01-14 00:53:00,42.6,11.8,30.21,NNW,336,6.0,15.0,28,0.00,,---,0.00,VWS V14.01,2013-01-14 08:53:00,
2013-01-14 00:57:00,42.7,11.1,30.21,East,94,0.0,15.0,27,0.00,,---,0.00,VWS V14.01,2013-01-14 08:57:00,
2013-01-14 01:02:00,42.5,10.9,30.21,North,9,6.0,15.0,27,0.00,,---,0.00,VWS V14.01,2013-01-14 09:02:00,
2013-01-14 01:07:00,42.4,10.8,30.21,NNE,12,6.0,17.0,27,0.00,,---,0.00,VWS V14.01,2013-01-14 09:07:00,
2013-01-14 01:12:00,42.3,11.5,30.21,North,360,7.0,17.0,28,0.00,,---,0.00,VWS V14.01,2013-01-14 09:12:00,
2013-01-14 01:17:00,42.2,10.6,30.22,North,9,8.0,17.0,27,0.00,,---,0.00,VWS V14.01,2013-01-14 09:17:00,
2013-01-14 01:22:00,42.2,10.6,30.22,ENE,66,2.0,17.0,27,0.00,,---,0.00,VWS V14.01,2013-01-14 09:22:00,
2013-01-14 01:27:00,42.2,10.6,30.22,NE,53,2.0,17.0,27,0.00,,---,0.00,VWS V14.01,2013-01-14 09:27:00,
2013-01-14 01:32:00,42.2,11.4,30.23,ENE,61,3.0,14.0,28,0.00,,---,0.00,VWS V14.01,2013-01-14 09:32:00,
2013-01-14 01:37:00,41.9,10.4,30.23,NE,38,3.0,14.0,27,0.00,,---,0.00,VWS V14.01,2013-01-14 09:37:00,
2013-01-14 01:42:00,41.7,10.2,30.23,North,355,2.0,14.0,27,0.00,,---,0.00,VWS V14.01,2013-01-14 09:42:00,
2013-01-14 01:47:00,41.5,10.8,30.23,East,98,0.0,14.0,28,0.00,,---,0.00,VWS V14.01,2013-01-14 09:47:00,
2013-01-14 01:52:00,41.2,10.6,30.23,North,5,2.0,14.0,28,0.00,,---,0.00,VWS V14.01,2013-01-14 09:52:00,
2013-01-14 01:57:00,41.0,11.2,30.23,NNE,19,3.0,14.0,29,0.00,,---,0.00,VWS V14.01,2013-01-14 09:57:00,
2013-01-14 02:02:00,41.1,10.5,30.23,NNW,344,0.0,8.0,28,0.00,,---,0.00,VWS V14.01,2013-01-14 10:02:00,
2013-01-14 02:07:00,41.3,10.7,30.23,North,5,0.0,8.0,28,0.00,,---,0.00,VWS V14.01,2013-01-14 10:07:00,
2013-01-14 02:12:00,41.3,10.7,30.23,North,351,0.0,8.0,28,0.00,,---,0.00,VWS V14.01,2013-01-14 10:12:00,
2013-01-14 02:17:00,41.2,10.6,30.24,NE,55,0.0,8.0,28,0.00,,---,0.00,VWS V14.01,2013-01-14 10:17:00,
2013-01-14 02:22:00,41.0,11.2,30.24,ESE,103,0.0,8.0,29,0.00,,---,0.00,VWS V14.01,2013-01-14 10:22:00,
2013-01-14 02:27:00,40.4,10.7,30.24,North,5,1.0,8.0,29,0.00,,---,0.00,VWS V14.01,2013-01-14 10:27:00,
2013-01-14 02:32:00,40.2,10.5,30.24,NNE,32,0.0,3.0,29,0.00,,---,0.00,VWS V14.01,2013-01-14 10:32:00,
2013-01-14 02:37:00,40.2,10.5,30.24,NE,55,0.0,3.0,29,0.00,,---,0.00,VWS V14.01,2013-01-14 10:37:00,
2013-01-14 02:42:00,39.9,11.0,30.24,East,80,0.0,3.0,30,0.00,,---,0.00,VWS V14.01,2013-01-14 10:42:00,
2013-01-14 02:47:00,39.7,10.8,30.24,North,11,0.0,4.0,30,0.00,,---,0.00,VWS V14.01,2013-01-14 10:47:00,
2013-01-14 02:52:00,39.5,11.4,30.24,East,87,0.0,4.0,31,0.00,,---,0.00,VWS V14.01,2013-01-14 10:52:00,
2013-01-14 02:57:00,39.5,10.6,30.24,ESE,107,0.0,4.0,30,0.00,,---,0.00,VWS V14.01,2013-01-14 10:57:00,
2013-01-14 03:02:00,39.5,9.9,30.24,East,81,0.0,2.0,29,0.00,,---,0.00,VWS V14.01,2013-01-14 11:02:00,
2013-01-14 03:07:00,39.4,10.6,30.25,NNE,15,1.0,3.0,30,0.00,,---,0.00,VWS V14.01,2013-01-14 11:07:00,
2013-01-14 03:12:00,39.2,10.4,30.24,NNE,22,1.0,4.0,30,0.00,,---,0.00,VWS V14.01,2013-01-14 11:12:00,
2013-01-14 03:17:00,39.0,10.9,30.24,NE,44,3.0,4.0,31,0.00,,---,0.00,VWS V14.01,2013-01-14 11:17:00,
2013-01-14 03:22:00,38.7,10.7,30.24,NNE,22,0.0,4.0,31,0.00,,---,0.00,VWS V14.01,2013-01-14 11:22:00,
2013-01-14 03:27:00,38.8,10.0,30.24,NNE,22,2.0,5.0,30,0.00,,---,0.00,VWS V14.01,2013-01-14 11:27:00,
2013-01-14 03:32:00,38.9,10.1,30.24,NNE,17,1.0,6.0,30,0.00,,---,0.00,VWS V14.01,2013-01-14 11:32:00,
2013-01-14 03:37:00,38.9,10.1,30.24,NE,44,2.0,6.0,30,0.00,,---,0.00,VWS V14.01,2013-01-14 11:37:00,
2013-01-14 03:42:00,38.7,9.9,30.24,NNE,19,3.0,6.0,30,0.00,,---,0.00,VWS V14.01,2013-01-14 11:42:00,
2013-01-14 03:47:00,38.6,9.9,30.24,ENE,57,0.0,6.0,30,0.00,,---,0.00,VWS V14.01,2013-01-14 11:47:00,
2013-01-14 03:52:00,38.5,9.8,30.24,NNE,17,3.0,6.0,30,0.00,,---,0.00,VWS V14.01,2013-01-14 11:52:00,
2013-01-14 03:57:00,38.2,9.5,30.24,North,11,3.0,6.0,30,0.00,,---,0.00,VWS V14.01,2013-01-14 11:57:00,
2013-01-14 04:02:00,38.2,9.5,30.24,NE,36,5.0,5.0,30,0.00,,---,0.00,VWS V14.01,2013-01-14 12:02:00,
2013-01-14 04:07:00,38.0,9.3,30.24,NE,35,1.0,5.0,30,0.00,,---,0.00,VWS V14.01,2013-01-14 12:07:00,
2013-01-14 04:12:00,38.0,10.1,30.23,NNW,347,1.0,5.0,31,0.00,,---,0.00,VWS V14.01,2013-01-14 12:12:00,
2013-01-14 04:17:00,37.8,9.9,30.23,North,355,1.0,5.0,31,0.00,,---,0.00,VWS V14.01,2013-01-14 12:17:00,
2013-01-14 04:22:00,38.0,9.3,30.24,NNE,31,1.0,5.0,30,0.00,,---,0.00,VWS V14.01,2013-01-14 12:22:00,
2013-01-14 04:27:00,37.8,9.9,30.24,North,5,5.0,5.0,31,0.00,,---,0.00,VWS V14.01,2013-01-14 12:27:00,
2013-01-14 04:32:00,37.4,10.2,30.24,NE,36,0.0,4.0,32,0.00,,---,0.00,VWS V14.01,2013-01-14 12:32:00,
2013-01-14 04:37:00,37.4,9.5,30.24,ENE,71,2.0,4.0,31,0.00,,---,0.00,VWS V14.01,2013-01-14 12:37:00,
2013-01-14 04:42:00,37.4,10.2,30.24,North,11,0.0,4.0,32,0.00,,---,0.00,VWS V14.01,2013-01-14 12:42:00,
2013-01-14 04:47:00,37.3,10.2,30.24,NNE,19,0.0,4.0,32,0.00,,---,0.00,VWS V14.01,2013-01-14 12:47:00,
2013-01-14 04:52:00,37.1,10.0,30.24,NNE,19,0.0,4.0,32,0.00,,---,0.00,VWS V14.01,2013-01-14 12:52:00,
2013-01-14 04:57:00,37.0,9.2,30.25,NNE,19,0.0,4.0,31,0.00,,---,0.00,VWS V14.01,2013-01-14 12:57:00,
2013-01-14 05:02:00,36.9,9.8,30.25,NNE,19,0.0,2.0,32,0.00,,---,0.00,VWS V14.01,2013-01-14 13:02:00,
2013-01-14 05:07:00,36.8,9.7,30.25,NNE,19,0.0,3.0,32,0.00,,---,0.00,VWS V14.01,2013-01-14 13:07:00,
2013-01-14 05:12:00,36.5,9.5,30.25,NNE,19,1.0,3.0,32,0.00,,---,0.00,VWS V14.01,2013-01-14 13:12:00,
2013-01-14 05:17:00,36.3,10.0,30.25,North,9,2.0,4.0,33,0.00,,---,0.00,VWS V14.01,2013-01-14 13:17:00,
2013-01-14 05:22:00,36.3,9.3,30.25,North,5,1.0,4.0,32,0.00,,---,0.00,VWS V14.01,2013-01-14 13:22:00,
2013-01-14 05:27:00,36.3,9.3,30.25,North,5,0.0,5.0,32,0.00,,---,0.00,VWS V14.01,2013-01-14 13:27:00,
2013-01-14 05:32:00,36.6,8.8,30.25,NNE,30,0.0,3.0,31,0.00,,---,0.00,VWS V14.01,2013-01-14 13:32:00,
2013-01-14 05:37:00,36.6,9.6,30.25,NNE,33,0.0,3.0,32,0.00,,---,0.00,VWS V14.01,2013-01-14 13:37:00,
2013-01-14 05:42:00,36.4,8.7,30.25,NNE,33,0.0,3.0,31,0.00,,---,0.00,VWS V14.01,2013-01-14 13:42:00,
2013-01-14 05:47:00,36.4,7.9,30.26,NNE,27,1.0,3.0,30,0.00,,---,0.00,VWS V14.01,2013-01-14 13:47:00,
2013-01-14 05:52:00,36.8,8.3,30.25,NE,37,0.0,4.0,30,0.00,,---,0.00,VWS V14.01,2013-01-14 13:52:00,
2013-01-14 05:57:00,36.6,8.1,30.26,NNE,15,0.0,4.0,30,0.00,,---,0.00,VWS V14.01,2013-01-14 13:57:00,
2013-01-14 06:02:00,36.6,7.4,30.26,North,5,1.0,3.0,29,0.00,,---,0.00,VWS V14.01,2013-01-14 14:02:00,
2013-01-14 06:07:00,36.9,6.8,30.26,NNE,16,5.0,6.0,28,0.00,,---,0.00,VWS V14.01,2013-01-14 14:07:00,
2013-01-14 06:12:00,37.2,6.3,30.26,NE,55,1.0,6.0,27,0.00,,---,0.00,VWS V14.01,2013-01-14 14:12:00,
2013-01-14 06:17:00,37.3,6.4,30.26,NE,55,0.0,6.0,27,0.00,,---,0.00,VWS V14.01,2013-01-14 14:17:00,
2013-01-14 06:22:00,37.4,7.3,30.27,NNE,17,0.0,6.0,28,0.00,,---,0.00,VWS V14.01,2013-01-14 14:22:00,
2013-01-14 06:27:00,37.1,7.8,30.27,NNE,17,0.0,6.0,29,0.00,,---,0.00,VWS V14.01,2013-01-14 14:27:00,
2013-01-14 06:32:00,37.0,6.1,30.27,NNE,17,0.0,0.0,27,0.00,,---,0.00,VWS V14.01,2013-01-14 14:32:00,
2013-01-14 06:37:00,37.0,6.1,30.28,NNW,348,1.0,2.0,27,0.00,,---,0.00,VWS V14.01,2013-01-14 14:37:00,
2013-01-14 06:42:00,37.0,5.3,30.28,North,5,0.0,3.0,26,0.00,,---,0.00,VWS V14.01,2013-01-14 14:42:00,
2013-01-14 06:47:00,37.0,5.3,30.28,NNW,333,3.0,3.0,26,0.00,,---,0.00,VWS V14.01,2013-01-14 14:47:00,
2013-01-14 06:52:00,37.5,4.9,30.28,NW,319,2.0,4.0,25,0.00,,---,0.00,VWS V14.01,2013-01-14 14:52:00,
2013-01-14 06:57:00,37.8,5.2,30.29,NE,42,2.0,4.0,25,0.00,,---,0.00,VWS V14.01,2013-01-14 14:57:00,
2013-01-14 07:02:00,37.8,6.0,30.29,NE,53,0.0,1.0,26,0.00,,---,0.00,VWS V14.01,2013-01-14 15:02:00,
2013-01-14 07:07:00,37.5,7.4,30.29,NE,53,0.0,1.0,28,0.00,,---,0.00,VWS V14.01,2013-01-14 15:07:00,
2013-01-14 07:12:00,37.1,6.2,30.30,NE,53,0.0,1.0,27,0.00,,---,0.00,VWS V14.01,2013-01-14 15:12:00,
2013-01-14 07:22:00,37.0,7.7,30.30,NE,53,0.0,0.0,29,0.00,,---,0.00,VWS V14.01,2013-01-14 15:22:00,
2013-01-14 07:27:00,37.5,8.9,30.30,NE,53,0.0,0.0,30,0.00,,---,0.00,VWS V14.01,2013-01-14 15:27:00,
2013-01-14 07:32:00,37.9,6.9,30.30,NE,53,0.0,1.0,27,0.00,,---,0.00,VWS V14.01,2013-01-14 15:32:00,
2013-01-14 07:37:00,38.2,8.0,30.31,NE,53,0.0,2.0,28,0.00,,---,0.00,VWS V14.01,2013-01-14 15:37:00,
2013-01-14 07:42:00,38.5,10.5,30.31,NE,53,2.0,2.0,31,0.00,,---,0.00,VWS V14.01,2013-01-14 15:42:00,
2013-01-14 07:47:00,38.5,8.2,30.32,North,355,6.0,6.0,28,0.00,,---,0.00,VWS V14.01,2013-01-14 15:47:00,
2013-01-14 07:52:00,38.8,8.5,30.32,North,360,2.0,6.0,28,0.00,,---,0.00,VWS V14.01,2013-01-14 15:52:00,
2013-01-14 07:57:00,39.2,8.9,30.32,North,351,6.0,8.0,28,0.00,,---,0.00,VWS V14.01,2013-01-14 15:57:00,
2013-01-14 08:02:00,39.7,7.6,30.32,NNW,348,0.0,3.0,26,0.00,,---,0.00,VWS V14.01,2013-01-14 16:02:00,
2013-01-14 08:07:00,40.3,7.3,30.33,North,5,0.0,3.0,25,0.00,,---,0.00,VWS V14.01,2013-01-14 16:07:00,
2013-01-14 08:12:00,41.1,9.7,30.33,West,281,0.0,3.0,27,0.00,,---,0.00,VWS V14.01,2013-01-14 16:12:00,
2013-01-14 08:17:00,41.1,8.8,30.33,NNW,339,5.0,6.0,26,0.00,,---,0.00,VWS V14.01,2013-01-14 16:17:00,
2013-01-14 08:22:00,40.6,10.1,30.33,NNE,23,2.0,7.0,28,0.00,,---,0.00,VWS V14.01,2013-01-14 16:22:00,
2013-01-14 08:27:00,40.8,9.4,30.33,North,5,0.0,7.0,27,0.00,,---,0.00,VWS V14.01,2013-01-14 16:27:00,
2013-01-14 08:32:00,41.7,9.4,30.34,East,87,1.0,5.0,26,0.00,,---,0.00,VWS V14.01,2013-01-14 16:32:00,
2013-01-14 08:37:00,42.5,9.2,30.34,SE,129,0.0,5.0,25,0.00,,---,0.00,VWS V14.01,2013-01-14 16:37:00,
2013-01-14 08:42:00,43.5,8.2,30.34,East,95,2.0,5.0,23,0.00,,---,0.00,VWS V14.01,2013-01-14 16:42:00,
2013-01-14 08:47:00,43.9,7.5,30.34,North,10,2.0,5.0,22,0.00,,---,0.00,VWS V14.01,2013-01-14 16:47:00,
2013-01-14 08:52:00,44.3,6.8,30.34,NNE,30,2.0,5.0,21,0.00,,---,0.00,VWS V14.01,2013-01-14 16:52:00,
2013-01-14 08:57:00,44.9,8.4,30.34,North,5,0.0,5.0,22,0.00,,---,0.00,VWS V14.01,2013-01-14 16:57:00,
2013-01-14 09:02:00,45.4,7.8,30.34,NE,34,0.0,2.0,21,0.00,,---,0.00,VWS V14.01,2013-01-14 17:02:00,
2013-01-14 09:07:00,45.9,8.2,30.34,ESE,111,0.0,2.0,21,0.00,,---,0.00,VWS V14.01,2013-01-14 17:07:00,
2013-01-14 09:12:00,46.6,7.7,30.34,ESE,111,0.0,4.0,20,0.00,,---,0.00,VWS V14.01,2013-01-14 17:12:00,
2013-01-14 09:17:00,46.8,6.7,30.34,SSE,158,0.0,4.0,19,0.00,,---,0.00,VWS V14.01,2013-01-14 17:17:00,
2013-01-14 09:22:00,46.6,6.6,30.33,SSE,155,0.0,5.0,19,0.00,,---,0.00,VWS V14.01,2013-01-14 17:22:00,
2013-01-14 09:27:00,46.4,6.4,30.34,ESE,113,0.0,6.0,19,0.00,,---,0.00,VWS V14.01,2013-01-14 17:27:00,
2013-01-14 09:32:00,46.5,6.5,30.34,SSE,167,0.0,0.0,19,0.00,,---,0.00,VWS V14.01,2013-01-14 17:32:00,
2013-01-14 09:37:00,47.0,6.9,30.34,SE,128,0.0,2.0,19,0.00,,---,0.00,VWS V14.01,2013-01-14 17:37:00,
2013-01-14 09:42:00,47.6,7.4,30.34,SSE,153,0.0,4.0,19,0.00,,---,0.00,VWS V14.01,2013-01-14 17:42:00,
2013-01-14 09:47:00,48.1,6.6,30.34,South,183,0.0,4.0,18,0.00,,---,0.00,VWS V14.01,2013-01-14 17:47:00,
2013-01-14 09:52:00,48.7,7.1,30.34,ESE,119,0.0,4.0,18,0.00,,---,0.00,VWS V14.01,2013-01-14 17:52:00,
2013-01-14 09:57:00,49.4,8.9,30.34,SSE,150,0.0,5.0,19,0.00,,---,0.00,VWS V14.01,2013-01-14 17:57:00,
2013-01-14 10:02:00,49.8,8.0,30.35,SE,142,0.0,3.0,18,0.00,,---,0.00,VWS V14.01,2013-01-14 18:02:00,
2013-01-14 10:07:00,50.0,8.2,30.34,SSE,157,0.0,4.0,18,0.00,,---,0.00,VWS V14.01,2013-01-14 18:07:00,
2013-01-14 10:12:00,50.5,7.3,30.34,East,89,1.0,4.0,17,0.00,,---,0.00,VWS V14.01,2013-01-14 18:12:00,
2013-01-14 10:17:00,50.4,7.2,30.34,West,263,0.0,4.0,17,0.00,,---,0.00,VWS V14.01,2013-01-14 18:17:00,
2013-01-14 10:22:00,50.3,5.8,30.34,SSW,211,0.0,4.0,16,0.00,,---,0.00,VWS V14.01,2013-01-14 18:22:00,
2013-01-14 10:27:00,50.3,7.2,30.34,South,181,1.0,4.0,17,0.00,,---,0.00,VWS V14.01,2013-01-14 18:27:00,
2013-01-14 10:32:00,50.1,8.3,30.33,East,97,6.0,6.0,18,0.00,,---,0.00,VWS V14.01,2013-01-14 18:32:00,
2013-01-14 10:37:00,50.2,8.3,30.33,West,261,1.0,6.0,18,0.00,,---,0.00,VWS V14.01,2013-01-14 18:37:00,
2013-01-14 10:42:00,50.6,11.0,30.33,WNW,282,0.0,6.0,20,0.00,,---,0.00,VWS V14.01,2013-01-14 18:42:00,
2013-01-14 10:47:00,50.8,10.0,30.33,WNW,294,1.0,6.0,19,0.00,,---,0.00,VWS V14.01,2013-01-14 18:47:00,
2013-01-14 10:52:00,50.7,10.0,30.33,South,187,0.0,6.0,19,0.00,,---,0.00,VWS V14.01,2013-01-14 18:52:00,
2013-01-14 10:57:00,51.3,9.2,30.33,SSE,166,0.0,6.0,18,0.00,,---,0.00,VWS V14.01,2013-01-14 18:57:00,
2013-01-14 11:01:00,52.4,10.1,30.33,WNW,298,0.0,2.0,18,0.00,,---,0.00,VWS V14.01,2013-01-14 19:01:00,
2013-01-14 11:06:00,52.5,11.4,30.33,ESE,119,0.0,2.0,19,0.00,,---,0.00,VWS V14.01,2013-01-14 19:06:00,
2013-01-14 11:11:00,52.7,10.4,30.32,SSE,156,0.0,4.0,18,0.00,,---,0.00,VWS V14.01,2013-01-14 19:11:00,
2013-01-14 11:16:00,53.6,9.9,30.32,SSW,202,0.0,4.0,17,0.00,,---,0.00,VWS V14.01,2013-01-14 19:16:00,
2013-01-14 11:21:00,53.0,8.0,30.32,ESE,119,1.0,6.0,16,0.00,,---,0.00,VWS V14.01,2013-01-14 19:21:00,
2013-01-14 11:26:00,52.1,8.6,30.32,WNW,301,3.0,8.0,17,0.00,,---,0.00,VWS V14.01,2013-01-14 19:26:00,
2013-01-14 11:31:00,51.9,8.5,30.32,SE,133,2.0,6.0,17,0.00,,---,0.00,VWS V14.01,2013-01-14 19:31:00,
2013-01-14 11:36:00,51.5,8.1,30.32,NE,51,0.0,6.0,17,0.00,,---,0.00,VWS V14.01,2013-01-14 19:36:00,
2013-01-14 11:41:00,51.8,8.4,30.32,SE,140,5.0,6.0,17,0.00,,---,0.00,VWS V14.01,2013-01-14 19:41:00,
2013-01-14 11:46:00,51.8,8.4,30.31,SE,126,4.0,7.0,17,0.00,,---,0.00,VWS V14.01,2013-01-14 19:46:00,
2013-01-14 11:51:00,51.8,7.1,30.31,South,173,0.0,7.0,16,0.00,,---,0.00,VWS V14.01,2013-01-14 19:51:00,
2013-01-14 11:56:00,51.8,7.1,30.31,SSE,150,1.0,7.0,16,0.00,,---,0.00,VWS V14.01,2013-01-14 19:56:00,
2013-01-14 12:01:00,52.4,7.5,30.31,SE,146,0.0,5.0,16,0.00,,---,0.00,VWS V14.01,2013-01-14 20:01:00,
2013-01-14 12:06:00,52.5,6.2,30.31,South,174,1.0,5.0,15,0.00,,---,0.00,VWS V14.01,2013-01-14 20:06:00,
2013-01-14 12:11:00,52.7,7.8,30.31,SW,218,2.0,5.0,16,0.00,,---,0.00,VWS V14.01,2013-01-14 20:11:00,
2013-01-14 12:16:00,52.9,7.9,30.31,South,171,0.0,5.0,16,0.00,,---,0.00,VWS V14.01,2013-01-14 20:16:00,
2013-01-14 12:21:00,53.1,5.2,30.30,North,350,3.0,5.0,14,0.00,,---,0.00,VWS V14.01,2013-01-14 20:21:00,
2013-01-14 12:26:00,53.0,6.6,30.31,ENE,76,0.0,5.0,15,0.00,,---,0.00,VWS V14.01,2013-01-14 20:26:00,
2013-01-14 12:31:00,53.8,7.2,30.30,South,169,0.0,2.0,15,0.00,,---,0.00,VWS V14.01,2013-01-14 20:31:00,
2013-01-14 12:36:00,54.0,5.9,30.31,SW,221,0.0,8.0,14,0.00,,---,0.00,VWS V14.01,2013-01-14 20:36:00,
2013-01-14 12:41:00,54.2,6.1,30.30,SSE,164,0.0,8.0,14,0.00,,---,0.00,VWS V14.01,2013-01-14 20:41:00,
2013-01-14 12:46:00,54.2,6.1,30.31,WSW,252,1.0,8.0,14,0.00,,---,0.00,VWS V14.01,2013-01-14 20:46:00,
2013-01-14 12:51:00,53.7,5.7,30.30,SW,217,0.0,8.0,14,0.00,,---,0.00,VWS V14.01,2013-01-14 20:51:00,
2013-01-14 12:56:00,53.8,5.7,30.30,WSW,242,0.0,8.0,14,0.00,,---,0.00,VWS V14.01,2013-01-14 20:56:00,
2013-01-14 13:01:00,54.2,7.6,30.30,SSW,200,3.0,5.0,15,0.00,,---,0.00,VWS V14.01,2013-01-14 21:01:00,
2013-01-14 13:06:00,53.7,5.7,30.30,SSW,212,3.0,6.0,14,0.00,,---,0.00,VWS V14.01,2013-01-14 21:06:00,
2013-01-14 13:11:00,53.0,5.1,30.30,SSE,154,1.0,7.0,14,0.00,,---,0.00,VWS V14.01,2013-01-14 21:11:00,
2013-01-14 13:16:00,53.0,6.6,30.29,ENE,78,0.0,7.0,15,0.00,,---,0.00,VWS V14.01,2013-01-14 21:16:00,
2013-01-14 13:21:00,54.2,7.6,30.30,East,87,0.0,7.0,15,0.00,,---,0.00,VWS V14.01,2013-01-14 21:21:00,
2013-01-14 13:26:00,55.5,8.6,30.30,NNE,17,0.0,7.0,15,0.00,,---,0.00,VWS V14.01,2013-01-14 21:26:00,
2013-01-14 13:31:00,55.4,7.0,30.30,SSE,155,1.0,1.0,14,0.00,,---,0.00,VWS V14.01,2013-01-14 21:31:00,
2013-01-14 13:36:00,55.2,5.2,30.30,WSW,244,0.0,2.0,13,0.00,,---,0.00,VWS V14.01,2013-01-14 21:36:00,
2013-01-14 13:41:00,55.1,5.2,30.30,SE,142,2.0,4.0,13,0.00,,---,0.00,VWS V14.01,2013-01-14 21:41:00,
2013-01-14 13:46:00,54.8,3.2,30.30,WSW,240,0.0,4.0,12,0.00,,---,0.00,VWS V14.01,2013-01-14 21:46:00,
2013-01-14 13:51:00,54.9,6.6,30.30,NNW,340,0.0,4.0,14,0.00,,---,0.00,VWS V14.01,2013-01-14 21:51:00,
2013-01-14 13:56:00,55.7,3.9,30.30,West,262,0.0,4.0,12,0.00,,---,0.00,VWS V14.01,2013-01-14 21:56:00,
2013-01-14 14:01:00,56.0,4.1,30.30,ESE,118,0.0,1.0,12,0.00,,---,0.00,VWS V14.01,2013-01-14 22:01:00,
2013-01-14 14:06:00,56.1,5.9,30.30,West,259,0.0,4.0,13,0.00,,---,0.00,VWS V14.01,2013-01-14 22:06:00,
2013-01-14 14:11:00,55.7,3.9,30.30,West,264,2.0,9.0,12,0.00,,---,0.00,VWS V14.01,2013-01-14 22:11:00,
2013-01-14 14:16:00,54.8,3.2,30.30,SW,219,0.0,9.0,12,0.00,,---,0.00,VWS V14.01,2013-01-14 22:16:00,
2013-01-14 14:21:00,54.8,3.2,30.30,ESE,104,0.0,9.0,12,0.00,,---,0.00,VWS V14.01,2013-01-14 22:21:00,
2013-01-14 14:26:00,54.9,1.4,30.30,West,270,0.0,9.0,11,0.00,,---,0.00,VWS V14.01,2013-01-14 22:26:00,
2013-01-14 14:31:00,54.8,1.3,30.30,SW,226,1.0,1.0,11,0.00,,---,0.00,VWS V14.01,2013-01-14 22:31:00,
2013-01-14 14:36:00,54.8,3.2,30.30,SSE,151,0.0,4.0,12,0.00,,---,0.00,VWS V14.01,2013-01-14 22:36:00,
2013-01-14 14:41:00,54.9,5.0,30.31,SE,132,0.0,4.0,13,0.00,,---,0.00,VWS V14.01,2013-01-14 22:41:00,
2013-01-14 14:46:00,55.2,8.4,30.31,East,82,0.0,4.0,15,0.00,,---,0.00,VWS V14.01,2013-01-14 22:46:00,
2013-01-14 14:51:00,55.3,5.3,30.31,SE,138,1.0,4.0,13,0.00,,---,0.00,VWS V14.01,2013-01-14 22:51:00,
2013-01-14 14:56:00,54.7,3.1,30.31,ESE,123,0.0,7.0,12,0.00,,---,0.00,VWS V14.01,2013-01-14 22:56:00,
2013-01-14 15:01:00,54.0,4.3,30.31,SSE,154,1.0,5.0,13,0.00,,---,0.00,VWS V14.01,2013-01-14 23:01:00,
2013-01-14 15:06:00,53.8,2.4,30.31,East,97,0.0,5.0,12,0.00,,---,0.00,VWS V14.01,2013-01-14 23:06:00,
2013-01-14 15:11:00,53.9,4.2,30.31,South,189,2.0,6.0,13,0.00,,---,0.00,VWS V14.01,2013-01-14 23:11:00,
2013-01-14 15:16:00,53.9,4.2,30.31,SSE,147,5.0,6.0,13,0.00,,---,0.00,VWS V14.01,2013-01-14 23:16:00,
2013-01-14 15:21:00,53.8,4.1,30.31,NW,305,0.0,6.0,13,0.00,,---,0.00,VWS V14.01,2013-01-14 23:21:00,
2013-01-14 15:26:00,53.9,4.2,30.31,West,269,0.0,6.0,13,0.00,,---,0.00,VWS V14.01,2013-01-14 23:26:00,
2013-01-14 15:31:00,54.1,4.4,30.31,ESE,112,0.0,5.0,13,0.00,,---,0.00,VWS V14.01,2013-01-14 23:31:00,
2013-01-14 15:36:00,54.1,6.0,30.31,WNW,301,1.0,5.0,14,0.00,,---,0.00,VWS V14.01,2013-01-14 23:36:00,
2013-01-14 15:41:00,54.0,5.9,30.31,WNW,285,0.0,5.0,14,0.00,,---,0.00,VWS V14.01,2013-01-14 23:41:00,
2013-01-14 15:46:00,53.8,8.7,30.31,WNW,288,0.0,5.0,16,0.00,,---,0.00,VWS V14.01,2013-01-14 23:46:00,
2013-01-14 15:51:00,53.2,6.8,30.31,SSE,151,1.0,6.0,15,0.00,,---,0.00,VWS V14.01,2013-01-14 23:51:00,
2013-01-14 15:56:00,52.6,6.3,30.31,ESE,123,0.0,6.0,15,0.00,,---,0.00,VWS V14.01,2013-01-14 23:56:00,
2013-01-14 16:01:00,52.1,5.9,30.31,ESE,123,0.0,1.0,15,0.00,,---,0.00,VWS V14.01,2013-01-15 00:01:00,
2013-01-14 16:06:00,51.7,5.6,30.31,ENE,75,0.0,2.0,15,0.00,,---,0.00,VWS V14.01,2013-01-15 00:06:00,
2013-01-14 16:11:00,51.6,6.9,30.31,SSE,168,0.0,4.0,16,0.00,,---,0.00,VWS V14.01,2013-01-15 00:11:00,
2013-01-14 16:16:00,51.4,5.3,30.31,ESE,108,0.0,6.0,15,0.00,,---,0.00,VWS V14.01,2013-01-15 00:16:00,
2013-01-14 16:21:00,51.2,5.2,30.32,ESE,109,1.0,6.0,15,0.00,,---,0.00,VWS V14.01,2013-01-15 00:21:00,
2013-01-14 16:26:00,51.0,7.7,30.31,ESE,107,0.0,6.0,17,0.00,,---,0.00,VWS V14.01,2013-01-15 00:26:00,
2013-01-14 16:31:00,50.9,4.9,30.32,East,90,0.0,2.0,15,0.00,,---,0.00,VWS V14.01,2013-01-15 00:31:00,
2013-01-14 16:36:00,50.7,4.8,30.31,SSE,151,0.0,2.0,15,0.00,,---,0.00,VWS V14.01,2013-01-15 00:36:00,
2013-01-14 16:41:00,50.6,7.4,30.31,WSW,243,0.0,2.0,17,0.00,,---,0.00,VWS V14.01,2013-01-15 00:41:00,
2013-01-14 16:46:00,50.4,11.9,30.32,SSE,148,0.0,2.0,21,0.00,,---,0.00,VWS V14.01,2013-01-15 00:46:00,
2013-01-14 16:51:00,50.2,12.8,30.32,South,185,0.0,3.0,22,0.00,,---,0.00,VWS V14.01,2013-01-15 00:51:00,
2013-01-14 16:56:00,49.9,12.6,30.32,SSW,206,0.0,3.0,22,0.00,,---,0.00,VWS V14.01,2013-01-15 00:56:00,
2013-01-14 17:01:00,49.6,12.3,30.32,South,187,0.0,2.0,22,0.00,,---,0.00,VWS V14.01,2013-01-15 01:01:00,
2013-01-14 17:06:00,49.3,13.1,30.32,SSW,210,0.0,2.0,23,0.00,,---,0.00,VWS V14.01,2013-01-15 01:06:00,
2013-01-14 17:11:00,49.1,12.9,30.33,SSW,210,0.0,2.0,23,0.00,,---,0.00,VWS V14.01,2013-01-15 01:11:00,
2013-01-14 17:16:00,48.8,13.6,30.33,SSW,203,1.0,2.0,24,0.00,,---,0.00,VWS V14.01,2013-01-15 01:16:00,
2013-01-14 17:21:00,48.6,14.4,30.33,WSW,239,0.0,3.0,25,0.00,,---,0.00,VWS V14.01,2013-01-15 01:21:00,
2013-01-14 17:26:00,48.4,15.1,30.34,WSW,248,0.0,3.0,26,0.00,,---,0.00,VWS V14.01,2013-01-15 01:26:00,
2013-01-14 17:31:00,48.1,15.7,30.34,WSW,248,0.0,0.0,27,0.00,,---,0.00,VWS V14.01,2013-01-15 01:31:00,
2013-01-14 17:36:00,47.7,15.4,30.34,WSW,248,0.0,0.0,27,0.00,,---,0.00,VWS V14.01,2013-01-15 01:36:00,
2013-01-14 17:41:00,47.5,16.0,30.34,SSW,201,0.0,1.0,28,0.00,,---,0.00,VWS V14.01,2013-01-15 01:41:00,
2013-01-14 17:46:00,47.1,16.5,30.35,SSW,201,0.0,1.0,29,0.00,,---,0.00,VWS V14.01,2013-01-15 01:46:00,
2013-01-14 17:51:00,46.7,16.9,30.34,SSW,201,0.0,1.0,30,0.00,,---,0.00,VWS V14.01,2013-01-15 01:51:00,
2013-01-14 17:56:00,46.3,17.3,30.35,SSW,201,0.0,1.0,31,0.00,,---,0.00,VWS V14.01,2013-01-15 01:56:00,
2013-01-14 18:01:00,45.9,19.1,30.35,SSW,201,0.0,0.0,34,0.00,,---,0.00,VWS V14.01,2013-01-15 02:01:00,
2013-01-14 18:06:00,45.1,18.4,30.35,SSW,201,0.0,0.0,34,0.00,,---,0.00,VWS V14.01,2013-01-15 02:06:00,
2013-01-14 18:11:00,44.5,18.6,30.35,SSW,201,0.0,0.0,35,0.00,,---,0.00,VWS V14.01,2013-01-15 02:11:00,
2013-01-14 18:16:00,43.9,18.0,30.34,SSW,201,0.0,0.0,35,0.00,,---,0.00,VWS V14.01,2013-01-15 02:16:00,
2013-01-14 18:21:00,43.6,18.4,30.34,SSW,201,0.0,0.0,36,0.00,,---,0.00,VWS V14.01,2013-01-15 02:21:00,
2013-01-14 18:26:00,43.3,18.2,30.34,SSW,201,0.0,0.0,36,0.00,,---,0.00,VWS V14.01,2013-01-15 02:26:00,
2013-01-14 18:31:00,43.1,18.6,30.34,SSW,201,0.0,0.0,37,0.00,,---,0.00,VWS V14.01,2013-01-15 02:31:00,
2013-01-14 18:36:00,42.8,18.4,30.35,SSW,201,0.0,0.0,37,0.00,,---,0.00,VWS V14.01,2013-01-15 02:36:00,
2013-01-14 18:41:00,42.8,19.0,30.35,SSW,201,0.0,1.0,38,0.00,,---,0.00,VWS V14.01,2013-01-15 02:41:00,
2013-01-14 18:46:00,42.8,19.6,30.35,SSW,201,0.0,1.0,39,0.00,,---,0.00,VWS V14.01,2013-01-15 02:46:00,
2013-01-14 18:51:00,42.5,19.9,30.36,SSW,201,0.0,1.0,40,0.00,,---,0.00,VWS V14.01,2013-01-15 02:51:00,
2013-01-14 18:56:00,42.0,20.0,30.36,SSW,201,0.0,1.0,41,0.00,,---,0.00,VWS V14.01,2013-01-15 02:56:00,
2013-01-14 19:01:00,41.6,20.8,30.36,SSW,201,0.0,0.0,43,0.00,,---,0.00,VWS V14.01,2013-01-15 03:01:00,
2013-01-14 19:06:00,41.7,20.9,30.36,SSW,201,0.0,0.0,43,0.00,,---,0.00,VWS V14.01,2013-01-15 03:06:00,
2013-01-14 19:11:00,41.9,21.0,30.36,SSW,201,0.0,0.0,43,0.00,,---,0.00,VWS V14.01,2013-01-15 03:11:00,
2013-01-14 19:16:00,42.2,21.3,30.36,SSW,201,0.0,0.0,43,0.00,,---,0.00,VWS V14.01,2013-01-15 03:16:00,
2013-01-14 19:21:00,42.1,22.3,30.36,SSW,201,0.0,0.0,45,0.00,,---,0.00,VWS V14.01,2013-01-15 03:21:00,
2013-01-14 19:26:00,41.6,21.9,30.36,SSW,201,0.0,0.0,45,0.00,,---,0.00,VWS V14.01,2013-01-15 03:26:00,
2013-01-14 19:31:00,41.2,22.0,30.36,SSW,201,0.0,0.0,46,0.00,,---,0.00,VWS V14.01,2013-01-15 03:31:00,
2013-01-14 19:36:00,40.9,22.2,30.36,SSW,201,0.0,0.0,47,0.00,,---,0.00,VWS V14.01,2013-01-15 03:36:00,
2013-01-14 19:41:00,40.7,22.1,30.36,SSW,201,0.0,0.0,47,0.00,,---,0.00,VWS V14.01,2013-01-15 03:41:00,
2013-01-14 19:46:00,40.6,20.9,30.36,SSW,201,0.0,0.0,45,0.00,,---,0.00,VWS V14.01,2013-01-15 03:46:00,
2013-01-14 19:51:00,40.7,20.5,30.36,SSW,201,0.0,0.0,44,0.00,,---,0.00,VWS V14.01,2013-01-15 03:51:00,
2013-01-14 19:56:00,40.4,22.8,30.36,SSW,201,0.0,0.0,49,0.00,,---,0.00,VWS V14.01,2013-01-15 03:56:00,
2013-01-14 20:01:00,39.2,22.1,30.36,SSW,201,0.0,0.0,50,0.00,,---,0.00,VWS V14.01,2013-01-15 04:01:00,
2013-01-14 20:06:00,38.8,20.3,30.36,SSW,201,0.0,0.0,47,0.00,,---,0.00,VWS V14.01,2013-01-15 04:06:00,
2013-01-14 20:11:00,38.7,17.6,30.35,SSW,201,0.0,0.0,42,0.00,,---,0.00,VWS V14.01,2013-01-15 04:11:00,
2013-01-14 20:16:00,38.6,17.0,30.35,SSW,201,0.0,0.0,41,0.00,,---,0.00,VWS V14.01,2013-01-15 04:16:00,
2013-01-14 20:21:00,38.5,18.0,30.35,SSW,201,0.0,0.0,43,0.00,,---,0.00,VWS V14.01,2013-01-15 04:21:00,
2013-01-14 20:26:00,38.2,17.7,30.35,SSW,201,0.0,0.0,43,0.00,,---,0.00,VWS V14.01,2013-01-15 04:26:00,
2013-01-14 20:31:00,38.1,18.1,30.36,SSW,201,0.0,0.0,44,0.00,,---,0.00,VWS V14.01,2013-01-15 04:31:00,
2013-01-14 20:36:00,38.1,18.6,30.36,SSW,201,0.0,0.0,45,0.00,,---,0.00,VWS V14.01,2013-01-15 04:36:00,
2013-01-14 20:41:00,38.7,14.1,30.36,NW,322,0.0,3.0,36,0.00,,---,0.00,VWS V14.01,2013-01-15 04:41:00,
2013-01-14 20:46:00,40.8,17.8,30.36,NNE,18,2.0,6.0,39,0.00,,---,0.00,VWS V14.01,2013-01-15 04:46:00,
2013-01-14 20:51:00,42.4,19.2,30.36,NNW,335,0.0,6.0,39,0.00,,---,0.00,VWS V14.01,2013-01-15 04:51:00,
2013-01-14 20:56:00,43.4,19.5,30.36,NNW,331,0.0,6.0,38,0.00,,---,0.00,VWS V14.01,2013-01-15 04:56:00,
2013-01-14 21:00:00,43.8,19.2,30.36,NW,321,0.0,2.0,37,0.00,,---,0.00,VWS V14.01,2013-01-15 05:00:00,
2013-01-14 21:01:00,43.9,19.3,30.37,NNW,329,0.0,2.0,37,0.00,,---,0.00,VWS V14.01,2013-01-15 05:01:00,
2013-01-14 21:03:00,44.1,19.5,30.37,NW,326,1.0,5.0,37,0.00,,---,0.00,VWS V14.01,2013-01-15 05:03:00,
2013-01-14 21:08:00,44.2,19.6,30.37,NNW,327,2.0,5.0,37,0.00,,---,0.00,VWS V14.01,2013-01-15 05:08:00,
2013-01-14 21:13:00,44.2,19.0,30.37,NW,323,1.0,5.0,36,0.00,,---,0.00,VWS V14.01,2013-01-15 05:13:00,
2013-01-14 21:18:00,44.3,18.4,30.37,NW,325,0.0,5.0,35,0.00,,---,0.00,VWS V14.01,2013-01-15 05:18:00,
2013-01-14 21:23:00,44.5,17.9,30.37,NNW,329,1.0,5.0,34,0.00,,---,0.00,VWS V14.01,2013-01-15 05:23:00,
2013-01-14 21:28:00,44.7,18.1,30.38,NNW,336,2.0,5.0,34,0.00,,---,0.00,VWS V14.01,2013-01-15 05:28:00,
2013-01-14 21:33:00,44.7,18.1,30.38,NNW,342,4.0,7.0,34,0.00,,---,0.00,VWS V14.01,2013-01-15 05:33:00,
2013-01-14 21:38:00,45.0,17.6,30.37,NNW,330,3.0,7.0,33,0.00,,---,0.00,VWS V14.01,2013-01-15 05:38:00,
2013-01-14 21:43:00,45.0,17.6,30.37,NNW,329,0.0,7.0,33,0.00,,---,0.00,VWS V14.01,2013-01-15 05:43:00,
2013-01-14 21:48:00,44.8,18.2,30.37,NNW,329,0.0,7.0,34,0.00,,---,0.00,VWS V14.01,2013-01-15 05:48:00,
2013-01-14 21:53:00,44.1,19.5,30.37,NNW,329,0.0,7.0,37,0.00,,---,0.00,VWS V14.01,2013-01-15 05:53:00,
2013-01-14 21:58:00,42.7,18.3,30.37,NNW,330,0.0,7.0,37,0.00,,---,0.00,VWS V14.01,2013-01-15 05:58:00,
2013-01-14 22:03:00,41.9,18.2,30.37,NNW,327,2.0,2.0,38,0.00,,---,0.00,VWS V14.01,2013-01-15 06:03:00,
2013-01-14 22:08:00,42.2,17.8,30.37,NW,318,1.0,3.0,37,0.00,,---,0.00,VWS V14.01,2013-01-15 06:08:00,
2013-01-14 22:13:00,42.6,17.5,30.37,NW,326,2.0,3.0,36,0.00,,---,0.00,VWS V14.01,2013-01-15 06:13:00,
2013-01-14 22:18:00,43.1,17.3,30.36,NW,316,0.0,3.0,35,0.00,,---,0.00,VWS V14.01,2013-01-15 06:18:00,
2013-01-14 22:23:00,43.4,16.9,30.36,NNW,329,2.0,4.0,34,0.00,,---,0.00,VWS V14.01,2013-01-15 06:23:00,
2013-01-14 22:28:00,43.9,16.7,30.36,NNW,335,0.0,4.0,33,0.00,,---,0.00,VWS V14.01,2013-01-15 06:28:00,
2013-01-14 22:33:00,44.1,16.1,30.36,NNW,330,0.0,2.0,32,0.00,,---,0.00,VWS V14.01,2013-01-15 06:33:00,
2013-01-14 22:38:00,44.2,16.2,30.36,NNW,336,0.0,3.0,32,0.00,,---,0.00,VWS V14.01,2013-01-15 06:38:00,
2013-01-14 22:43:00,44.0,16.8,30.36,NW,326,0.0,4.0,33,0.00,,---,0.00,VWS V14.01,2013-01-15 06:43:00,
2013-01-14 22:48:00,44.0,15.3,30.37,NW,317,4.0,4.0,31,0.00,,---,0.00,VWS V14.01,2013-01-15 06:48:00,
2013-01-14 22:53:00,44.0,15.3,30.37,NNW,330,4.0,7.0,31,0.00,,---,0.00,VWS V14.01,2013-01-15 06:53:00,
2013-01-14 22:58:00,44.2,15.5,30.37,NW,312,3.0,7.0,31,0.00,,---,0.00,VWS V14.01,2013-01-15 06:58:00,
2013-01-14 23:03:00,44.2,15.5,30.37,NW,311,4.0,6.0,31,0.00,,---,0.00,VWS V14.01,2013-01-15 07:03:00,
2013-01-14 23:08:00,44.2,15.5,30.38,NNW,327,3.0,6.0,31,0.00,,---,0.00,VWS V14.01,2013-01-15 07:08:00,
2013-01-14 23:13:00,44.2,15.5,30.38,NW,323,0.0,6.0,31,0.00,,---,0.00,VWS V14.01,2013-01-15 07:13:00,
2013-01-14 23:18:00,44.0,16.0,30.38,NNW,338,2.0,6.0,32,0.00,,---,0.00,VWS V14.01,2013-01-15 07:18:00,
2013-01-14 23:23:00,43.7,16.5,30.38,NW,317,0.0,6.0,33,0.00,,---,0.00,VWS V14.01,2013-01-15 07:23:00,
2013-01-14 23:28:00,43.3,16.8,30.38,North,351,0.0,6.0,34,0.00,,---,0.00,VWS V14.01,2013-01-15 07:28:00,
2013-01-14 23:33:00,42.8,15.0,30.38,NNW,336,1.0,4.0,32,0.00,,---,0.00,VWS V14.01,2013-01-15 07:33:00,
2013-01-14 23:38:00,42.9,16.5,30.38,NW,312,0.0,4.0,34,0.00,,---,0.00,VWS V14.01,2013-01-15 07:38:00,
2013-01-14 23:43:00,42.9,16.5,30.38,NNW,336,0.0,4.0,34,0.00,,---,0.00,VWS V14.01,2013-01-15 07:43:00,
2013-01-14 23:48:00,42.5,16.1,30.39,NNW,331,0.0,4.0,34,0.00,,---,0.00,VWS V14.01,2013-01-15 07:48:00,
2013-01-14 23:53:00,42.1,15.8,30.38,NNW,331,0.0,4.0,34,0.00,,---,0.00,VWS V14.01,2013-01-15 07:53:00,
2013-01-14 23:58:00,41.5,15.9,30.38,NNW,331,0.0,4.0,35,0.00,,---,0.00,VWS V14.01,2013-01-15 07:58:00,